This is the latest recevied weather packets stored in our database for station/object KR0L-13. If no packets are shown the sender has not sent any weather packets the latest 10 day(s).
| Time | Temp. | Humidity | Pressure | Rain* | Wind** | Luminosity | Snow |
|---|---|---|---|---|---|---|---|
| 1777786221 | 10° C | 57% | 1018 hPa | 0 mm | - | - | - |
| 1777785621 | 10.56° C | 57% | 1018.2 hPa | 0 mm | - | - | - |
| 1777785021 | 10.56° C | 57% | 1018.3 hPa | 0 mm | - | - | - |
| 1777784421 | 10.56° C | 57% | 1018.2 hPa | 0 mm | - | - | - |
| 1777783821 | 10° C | 57% | 1018.2 hPa | 0 mm | - | - | - |
| 1777783221 | 10.56° C | 54% | 1018.4 hPa | 0 mm | - | - | - |
| 1777782621 | 11.11° C | 52% | 1018.5 hPa | 0 mm | - | - | - |
| 1777782021 | 11.11° C | 52% | 1018.5 hPa | 0 mm | - | - | - |
| 1777781421 | 11.11° C | 51% | 1018.6 hPa | 0 mm | - | - | - |
| 1777780821 | 11.11° C | 51% | 1018.5 hPa | 0 mm | - | - | - |
| 1777780221 | 11.11° C | 51% | 1018.6 hPa | 0 mm | - | - | - |
| 1777779624 | 11.11° C | 51% | 1018.6 hPa | 0 mm | - | - | - |
| 1777779021 | 11.67° C | 51% | 1018.6 hPa | 0 mm | - | - | - |
| 1777778420 | 11.67° C | 51% | 1018.6 hPa | 0 mm | - | - | - |
| 1777777820 | 11.67° C | 51% | 1018.5 hPa | 0 mm | - | - | - |
| 1777777220 | 12.22° C | 49% | 1018.6 hPa | 0 mm | - | - | - |
| 1777776621 | 12.22° C | 48% | 1018.5 hPa | 0 mm | - | - | - |
| 1777776021 | 12.22° C | 47% | 1018.4 hPa | 0 mm | - | - | - |
| 1777775420 | 12.78° C | 45% | 1018.3 hPa | 0 mm | - | - | - |
| 1777774821 | 12.78° C | 45% | 1018.3 hPa | 0 mm | - | - | - |
| 1777774220 | 12.78° C | 46% | 1018.2 hPa | 0 mm | - | - | - |
| 1777773620 | 12.78° C | 43% | 1018 hPa | 0 mm | - | - | - |
| 1777773021 | 13.89° C | 42% | 1018 hPa | 0 mm | - | - | - |
| 1777772420 | 14.44° C | 40% | 1018 hPa | 0 mm | - | - | - |
| 1777771820 | 15° C | 38% | 1017.8 hPa | 0 mm | - | - | - |
* Rain latest hour (hover to see other rain measurements)
** Current wind speed in m/s (hover to see current wind gust speed)